| time (UTC) | temp F | wind direction | speed MPH | gust MPH | rain 1hr in | rain 24hr in | rain mn in | humidity % | barometer mb |
| 20260507195233 | 55 | 326 | 0.0 | 1.0 | 0.00 | 0.03 | 0.03 | 83 | 1015.6 |
| 20260507194232 | 56 | 305 | 0.0 | 1.0 | 0.00 | 0.03 | 0.03 | 83 | 1015.5 |
| 20260507193733 | 56 | 305 | 0.0 | 1.0 | 0.00 | 0.03 | 0.03 | 83 | 1015.5 |
| 20260507193232 | 56 | 304 | 0.0 | 1.0 | 0.00 | 0.03 | 0.03 | 82 | 1015.5 |
| 20260507192733 | 56 | 305 | 0.0 | 1.0 | 0.00 | 0.03 | 0.03 | 82 | 1015.6 |
| 20260507192230 | 56 | 70 | 0.0 | 0.0 | 0.00 | 0.03 | 0.03 | 82 | 1015.6 |
| 20260507191240 | 56 | 70 | 0.0 | 1.0 | 0.00 | 0.03 | 0.03 | 81 | 1015.6 |
| 20260507190729 | 57 | 70 | 0.0 | 1.0 | 0.00 | 0.03 | 0.03 | 81 | 1015.6 |
| 20260507190229 | 57 | 70 | 0.0 | 1.0 | 0.00 | 0.03 | 0.03 | 81 | 1015.6 |
| 20260507185721 | 57 | 70 | 0.0 | 1.0 | 0.00 | 0.03 | 0.03 | 80 | 1015.6 |
| 20260507185214 | 57 | 70 | 0.0 | 1.0 | 0.00 | 0.03 | 0.03 | 80 | 1015.5 |
| 20260507184708 | 58 | 70 | 0.0 | 2.0 | 0.00 | 0.03 | 0.03 | 80 | 1015.5 |
| 20260507183656 | 58 | 69 | 0.0 | 1.0 | 0.00 | 0.03 | 0.03 | 80 | 1015.4 |
| 20260507183151 | 58 | 70 | 0.0 | 1.0 | 0.00 | 0.03 | 0.03 | 80 | 1015.4 |
| 20260507182644 | 58 | 70 | 0.0 | 2.0 | 0.00 | 0.03 | 0.03 | 80 | 1015.2 |
| 20260507182139 | 58 | 70 | 1.0 | 2.0 | 0.00 | 0.03 | 0.03 | 79 | 1015.1 |
| 20260507181632 | 58 | 70 | 0.0 | 2.0 | 0.00 | 0.03 | 0.03 | 78 | 1015.1 |
| 20260507181127 | 59 | 53 | 0.0 | 1.0 | 0.00 | 0.03 | 0.03 | 77 | 1015.0 |
| 20260507180620 | 59 | 201 | 0.0 | 1.0 | 0.00 | 0.03 | 0.03 | 77 | 1015.0 |
| 20260507180114 | 60 | 201 | 0.0 | 1.0 | 0.00 | 0.03 | 0.03 | 76 | 1015.0 |
| 20260507175609 | 60 | 205 | 0.0 | 1.0 | 0.00 | 0.03 | 0.03 | 76 | 1015.1 |
| 20260507174558 | 61 | 207 | 0.0 | 1.0 | 0.00 | 0.03 | 0.03 | 75 | 1015.1 |
| 20260507174050 | 61 | 207 | 0.0 | 1.0 | 0.00 | 0.03 | 0.03 | 74 | 1014.9 |
| 20260507173544 | 62 | 207 | 0.0 | 1.0 | 0.00 | 0.03 | 0.03 | 73 | 1015.0 |
| 20260507173043 | 62 | 207 | 0.0 | 1.0 | 0.00 | 0.03 | 0.03 | 73 | 1015.0 |
| 20260507172533 | 62 | 161 | 0.0 | 3.0 | 0.00 | 0.03 | 0.03 | 72 | 1015.1 |
| 20260507172029 | 62 | 162 | 0.0 | 3.0 | 0.00 | 0.03 | 0.03 | 71 | 1015.0 |
| 20260507171014 | 63 | 155 | 1.0 | 4.0 | 0.00 | 0.03 | 0.03 | 70 | 1014.8 |
| 20260507170509 | 64 | 215 | 1.0 | 4.0 | 0.00 | 0.03 | 0.03 | 70 | 1014.8 |
| 20260507170002 | 64 | 180 | 0.0 | 4.0 | 0.00 | 0.03 | 0.03 | 70 | 1014.8 |
| 20260507165456 | 64 | 191 | 1.0 | 4.0 | 0.00 | 0.03 | 0.03 | 69 | 1014.8 |
| 20260507164950 | 64 | 198 | 1.0 | 4.0 | 0.00 | 0.03 | 0.03 | 69 | 1014.9 |
| 20260507164444 | 64 | 194 | 1.0 | 4.0 | 0.00 | 0.03 | 0.03 | 69 | 1014.9 |
| 20260507163939 | 64 | 207 | 1.0 | 4.0 | 0.00 | 0.03 | 0.03 | 69 | 1014.9 |
| 20260507161408 | 65 | 130 | 2.0 | 6.0 | 0.00 | 0.03 | 0.03 | 68 | 1014.9 |
| 20260507160905 | 65 | 153 | 2.0 | 7.0 | 0.00 | 0.03 | 0.03 | 68 | 1014.9 |
| 20260507160355 | 65 | 151 | 3.0 | 7.0 | 0.00 | 0.03 | 0.03 | 68 | 1014.8 |
| 20260507155850 | 65 | 115 | 3.0 | 7.0 | 0.00 | 0.03 | 0.03 | 68 | 1014.8 |
| 20260507154841 | 65 | 198 | 4.0 | 7.0 | 0.00 | 0.03 | 0.03 | 68 | 1014.8 |
| 20260507154333 | 65 | 117 | 3.0 | 7.0 | 0.00 | 0.03 | 0.03 | 68 | 1014.7 |
| 20260507153826 | 65 | 114 | 3.0 | 6.0 | 0.00 | 0.03 | 0.03 | 67 | 1014.7 |
| 20260507153320 | 65 | 152 | 2.0 | 6.0 | 0.00 | 0.03 | 0.03 | 66 | 1014.7 |
| 20260507152814 | 65 | 129 | 2.0 | 6.0 | 0.00 | 0.03 | 0.03 | 67 | 1014.7 |
| 20260507152309 | 65 | 63 | 3.0 | 7.0 | 0.00 | 0.03 | 0.03 | 67 | 1014.7 |
| 20260507151803 | 65 | 25 | 3.0 | 7.0 | 0.00 | 0.03 | 0.03 | 67 | 1014.8 |
| 20260507151256 | 65 | 88 | 2.0 | 5.0 | 0.00 | 0.03 | 0.03 | 67 | 1014.9 |
| 20260507150751 | 65 | 115 | 3.0 | 5.0 | 0.00 | 0.03 | 0.03 | 67 | 1014.8 |
| 20260507150245 | 65 | 79 | 3.0 | 7.0 | 0.00 | 0.03 | 0.03 | 67 | 1014.9 |
| 20260507145738 | 65 | 111 | 2.0 | 7.0 | 0.00 | 0.03 | 0.03 | 67 | 1014.9 |
| 20260507145232 | 65 | 113 | 2.0 | 4.0 | 0.00 | 0.03 | 0.03 | 67 | 1014.9 |
| 20260507144221 | 64 | 128 | 3.0 | 6.0 | 0.00 | 0.03 | 0.03 | 69 | 1015.0 |
| 20260507143208 | 65 | 99 | 3.0 | 8.0 | 0.00 | 0.03 | 0.03 | 68 | 1015.2 |
| 20260507142702 | 65 | 218 | 2.0 | 7.0 | 0.00 | 0.03 | 0.03 | 67 | 1015.1 |
| 20260507142156 | 65 | 242 | 3.0 | 11.0 | 0.00 | 0.03 | 0.03 | 68 | 1015.1 |
| 20260507141144 | 65 | 108 | 3.0 | 9.0 | 0.00 | 0.03 | 0.03 | 68 | 1015.1 |
| 20260507135626 | 64 | 98 | 2.0 | 5.0 | 0.00 | 0.03 | 0.03 | 69 | 1015.4 |
| 20260507135120 | 64 | 181 | 2.0 | 5.0 | 0.00 | 0.03 | 0.03 | 69 | 1015.4 |
| 20260507134620 | 64 | 120 | 1.0 | 6.0 | 0.00 | 0.03 | 0.03 | 69 | 1015.5 |
| 20260507134107 | 64 | 263 | 2.0 | 6.0 | 0.00 | 0.03 | 0.03 | 71 | 1015.4 |
| 20260507133602 | 63 | 38 | 2.0 | 6.0 | 0.00 | 0.03 | 0.03 | 72 | 1015.5 |
| 20260507133057 | 63 | 122 | 2.0 | 6.0 | 0.00 | 0.03 | 0.03 | 72 | 1015.5 |
| 20260507132551 | 63 | 120 | 4.0 | 7.0 | 0.00 | 0.03 | 0.03 | 72 | 1015.5 |
| 20260507132044 | 63 | 60 | 3.0 | 7.0 | 0.00 | 0.03 | 0.03 | 71 | 1015.5 |
| 20260507131542 | 63 | 125 | 1.0 | 5.0 | 0.00 | 0.03 | 0.03 | 72 | 1015.5 |
| 20260507131032 | 63 | 174 | 1.0 | 5.0 | 0.00 | 0.03 | 0.03 | 70 | 1015.6 |
| 20260507130527 | 62 | 216 | 1.0 | 5.0 | 0.00 | 0.03 | 0.03 | 73 | 1015.6 |
| 20260507125514 | 61 | 203 | 1.0 | 5.0 | 0.00 | 0.03 | 0.03 | 75 | 1015.7 |
| 20260507124511 | 61 | 187 | 2.0 | 4.0 | 0.00 | 0.03 | 0.03 | 75 | 1015.8 |
| 20260507123511 | 61 | 114 | 2.0 | 6.0 | 0.00 | 0.03 | 0.03 | 75 | 1015.9 |
| 20260507122508 | 61 | 127 | 1.0 | 5.0 | 0.00 | 0.03 | 0.03 | 74 | 1016.0 |
| 20260507122006 | 61 | 231 | 0.0 | 2.0 | 0.00 | 0.03 | 0.03 | 73 | 1016.1 |
| 20260507121507 | 61 | 108 | 1.0 | 3.0 | 0.00 | 0.03 | 0.03 | 74 | 1016.2 |
| 20260507121008 | 61 | 108 | 1.0 | 3.0 | 0.00 | 0.03 | 0.03 | 73 | 1016.4 |
| 20260507120508 | 61 | 129 | 0.0 | 2.0 | 0.00 | 0.03 | 0.03 | 73 | 1016.4 |
| 20260507120008 | 61 | 227 | 1.0 | 4.0 | 0.00 | 0.03 | 0.03 | 72 | 1016.4 |
| 20260507115508 | 61 | 149 | 2.0 | 5.0 | 0.00 | 0.03 | 0.03 | 72 | 1016.5 |
| 20260507115007 | 62 | 75 | 1.0 | 5.0 | 0.00 | 0.03 | 0.03 | 71 | 1016.5 |
| 20260507114508 | 62 | 212 | 0.0 | 4.0 | 0.00 | 0.03 | 0.03 | 69 | 1016.5 |
| 20260507114006 | 62 | 233 | 0.0 | 2.0 | 0.00 | 0.03 | 0.03 | 69 | 1016.5 |
| 20260507113509 | 62 | 293 | 1.0 | 3.0 | 0.00 | 0.03 | 0.03 | 68 | 1016.6 |
| 20260507113009 | 62 | 263 | 0.0 | 3.0 | 0.00 | 0.03 | 0.03 | 69 | 1016.6 |
| 20260507112004 | 62 | 263 | 1.0 | 5.0 | 0.00 | 0.03 | 0.03 | 68 | 1016.5 |
| 20260507111506 | 62 | 262 | 1.0 | 7.0 | 0.00 | 0.03 | 0.03 | 68 | 1016.6 |
| 20260507111005 | 62 | 262 | 1.0 | 7.0 | 0.00 | 0.03 | 0.03 | 68 | 1016.7 |
| 20260507110506 | 62 | 263 | 1.0 | 5.0 | 0.01 | 0.03 | 0.03 | 70 | 1016.8 |
| 20260507110008 | 62 | 263 | 0.0 | 3.0 | 0.01 | 0.03 | 0.03 | 71 | 1016.7 |
| 20260507105007 | 61 | 263 | 2.0 | 5.0 | 0.01 | 0.03 | 0.03 | 71 | 1016.9 |
| 20260507104506 | 61 | 263 | 2.0 | 5.0 | 0.01 | 0.03 | 0.03 | 72 | 1016.9 |
| 20260507104009 | 61 | 288 | 2.0 | 8.0 | 0.01 | 0.03 | 0.03 | 72 | 1016.9 |
| 20260507103507 | 61 | 262 | 1.0 | 8.0 | 0.01 | 0.03 | 0.03 | 72 | 1017.0 |
| 20260507103005 | 61 | 277 | 1.0 | 4.0 | 0.01 | 0.03 | 0.03 | 75 | 1017.0 |
| 20260507101959 | 61 | 303 | 1.0 | 6.0 | 0.02 | 0.03 | 0.03 | 74 | 1017.1 |
| 20260507101001 | 60 | 305 | 0.0 | 3.0 | 0.02 | 0.03 | 0.03 | 75 | 1017.2 |
| 20260507100459 | 60 | 349 | 0.0 | 3.0 | 0.01 | 0.02 | 0.02 | 74 | 1017.2 |
| 20260507094954 | 60 | 319 | 0.0 | 2.0 | 0.01 | 0.02 | 0.02 | 76 | 1017.2 |
| 20260507094454 | 60 | 287 | 0.0 | 1.0 | 0.01 | 0.02 | 0.02 | 77 | 1017.3 |
| 20260507093952 | 60 | 287 | 0.0 | 1.0 | 0.02 | 0.02 | 0.02 | 77 | 1017.3 |
| 20260507093450 | 60 | 308 | 0.0 | 0.0 | 0.02 | 0.02 | 0.02 | 78 | 1017.3 |
| 20260507092947 | 60 | 306 | 0.0 | 1.0 | 0.02 | 0.02 | 0.02 | 77 | 1017.3 |
| 20260507092446 | 59 | 308 | 0.0 | 1.0 | 0.02 | 0.02 | 0.02 | 77 | 1017.2 |
| 20260507091946 | 59 | 287 | 0.0 | 1.0 | 0.01 | 0.02 | 0.02 | 77 | 1017.2 |
| 20260507091447 | 59 | 315 | 0.0 | 1.0 | 0.01 | 0.02 | 0.02 | 78 | 1017.2 |
| 20260507090956 | 59 | 286 | 0.0 | 1.0 | 0.01 | 0.02 | 0.02 | 78 | 1017.2 |
| 20260507090442 | 59 | 287 | 0.0 | 1.0 | 0.01 | 0.02 | 0.02 | 77 | 1017.1 |
| 20260507085943 | 59 | 286 | 0.0 | 1.0 | 0.01 | 0.02 | 0.02 | 77 | 1017.1 |
| 20260507085442 | 59 | 287 | 0.0 | 1.0 | 0.01 | 0.02 | 0.02 | 78 | 1017.0 |
| 20260507084942 | 59 | 287 | 0.0 | 1.0 | 0.01 | 0.02 | 0.02 | 78 | 1017.0 |
| 20260507083942 | 59 | 287 | 0.0 | 1.0 | 0.00 | 0.01 | 0.01 | 78 | 1017.1 |
| 20260507082945 | 59 | 287 | 0.0 | 2.0 | 0.00 | 0.01 | 0.01 | 78 | 1017.2 |
| 20260507082439 | 59 | 307 | 1.0 | 3.0 | 0.00 | 0.01 | 0.01 | 78 | 1017.2 |
| 20260507081938 | 59 | 287 | 1.0 | 5.0 | 0.00 | 0.01 | 0.01 | 77 | 1017.2 |
| 20260507081438 | 59 | 288 | 1.0 | 5.0 | 0.00 | 0.01 | 0.01 | 76 | 1017.1 |
| 20260507080938 | 59 | 325 | 0.0 | 3.0 | 0.01 | 0.01 | 0.01 | 77 | 1017.1 |
| 20260507075940 | 58 | 310 | 1.0 | 3.0 | 0.01 | 0.01 | 0.01 | 77 | 1017.1 |
| 20260507075440 | 58 | 319 | 1.0 | 3.0 | 0.01 | 0.01 | 0.01 | 76 | 1017.1 |
| 20260507074442 | 58 | 298 | 0.0 | 2.0 | 0.01 | 0.01 | 0.01 | 77 | 1017.0 |
| 20260507073940 | 58 | 309 | 0.0 | 3.0 | 0.01 | 0.01 | 0.01 | 78 | 1016.9 |
| 20260507072940 | 57 | 308 | 1.0 | 5.0 | 0.01 | 0.01 | 0.01 | 76 | 1016.9 |
| 20260507072438 | 57 | 313 | 1.0 | 6.0 | 0.01 | 0.01 | 0.01 | 76 | 1016.8 |
| 20260507071938 | 57 | 321 | 1.0 | 6.0 | 0.01 | 0.01 | 0.01 | 76 | 1016.8 |
| 20260507071439 | 57 | 333 | 1.0 | 6.0 | 0.01 | 0.01 | 0.01 | 76 | 1016.8 |
| 20260507070938 | 57 | 297 | 1.0 | 6.0 | 0.00 | 0.00 | 0.00 | 75 | 1016.8 |
| 20260507070438 | 57 | 29 | 2.0 | 6.0 | 0.00 | 0.00 | 0.00 | 73 | 1016.7 |
| 20260507065936 | 58 | 345 | 2.0 | 6.0 | 0.00 | 0.00 | 0.00 | 73 | 1016.7 |
| 20260507065433 | 58 | 344 | 1.0 | 5.0 | 0.00 | 0.00 | 0.00 | 73 | 1016.7 |
| 20260507064933 | 58 | 48 | 0.0 | 3.0 | 0.00 | 0.00 | 0.00 | 73 | 1016.7 |
| 20260507064427 | 58 | 33 | 0.0 | 2.0 | 0.00 | 0.00 | 0.00 | 73 | 1016.7 |
| 20260507063415 | 58 | 351 | 0.0 | 3.0 | 0.00 | 0.00 | 0.00 | 72 | 1016.6 |
| 20260507062909 | 58 | 24 | 0.0 | 1.0 | 0.00 | 0.00 | 0.00 | 73 | 1016.6 |
| 20260507062405 | 58 | 22 | 0.0 | 2.0 | 0.00 | 0.00 | 0.00 | 72 | 1016.6 |
| 20260507061857 | 58 | 314 | 0.0 | 2.0 | 0.00 | 0.00 | 0.00 | 71 | 1016.6 |
| 20260507060846 | 58 | 314 | 0.0 | 3.0 | 0.00 | 0.00 | 0.00 | 70 | 1016.6 |
| 20260507060340 | 58 | 358 | 0.0 | 1.0 | 0.00 | 0.00 | 0.00 | 70 | 1016.5 |
| 20260507055834 | 58 | 117 | 0.0 | 1.0 | 0.00 | 0.00 | 0.00 | 68 | 1016.5 |
| 20260507055330 | 58 | 139 | 0.0 | 1.0 | 0.00 | 0.00 | 0.00 | 69 | 1016.4 |
| 20260507054830 | 58 | 139 | 0.0 | 0.0 | 0.00 | 0.00 | 0.00 | 69 | 1016.2 |
| 20260507054330 | 58 | 139 | 0.0 | 1.0 | 0.00 | 0.00 | 0.00 | 70 | 1016.1 |
| 20260507053830 | 57 | 138 | 0.0 | 2.0 | 0.00 | 0.00 | 0.00 | 70 | 1016.0 |
| 20260507053330 | 58 | 138 | 0.0 | 2.0 | 0.00 | 0.00 | 0.00 | 69 | 1016.0 |
| 20260507051831 | 57 | 113 | 0.0 | 1.0 | 0.00 | 0.00 | 0.00 | 72 | 1015.8 |
| 20260507051344 | 56 | 113 | 0.0 | 1.0 | 0.00 | 0.00 | 0.00 | 72 | 1015.7 |
| 20260507050330 | 56 | 113 | 0.0 | 1.0 | 0.00 | 0.00 | 0.00 | 74 | 1015.7 |
| 20260507045832 | 56 | 113 | 0.0 | 1.0 | 0.00 | 0.00 | 0.00 | 74 | 1015.6 |
| 20260507044332 | 55 | 113 | 0.0 | 1.0 | 0.00 | 0.00 | 0.00 | 75 | 1015.5 |
| 20260507043831 | 54 | 113 | 0.0 | 1.0 | 0.00 | 0.00 | 0.00 | 75 | 1015.3 |
| 20260507043333 | 54 | 120 | 0.0 | 1.0 | 0.00 | 0.00 | 0.00 | 76 | 1015.3 |
| 20260507042827 | 54 | 120 | 0.0 | 1.0 | 0.00 | 0.00 | 0.00 | 76 | 1015.2 |
| 20260507042321 | 54 | 120 | 0.0 | 1.0 | 0.00 | 0.00 | 0.00 | 76 | 1015.3 |
| 20260507041815 | 54 | 120 | 0.0 | 1.0 | 0.00 | 0.00 | 0.00 | 76 | 1015.3 |
| 20260507041309 | 54 | 120 | 0.0 | 1.0 | 0.00 | 0.00 | 0.00 | 76 | 1015.2 |
| 20260507040803 | 53 | 120 | 0.0 | 1.0 | 0.00 | 0.00 | 0.00 | 76 | 1015.2 |
| 20260507040257 | 53 | 120 | 0.0 | 1.0 | 0.00 | 0.00 | 0.00 | 76 | 1015.2 |
| 20260507035751 | 53 | 120 | 0.0 | 1.0 | 0.00 | 0.00 | 0.00 | 76 | 1015.1 |
| 20260507035245 | 53 | 120 | 0.0 | 1.0 | 0.00 | 0.00 | 0.00 | 76 | 1015.1 |
| 20260507034233 | 53 | 120 | 0.0 | 1.0 | 0.00 | 0.00 | 0.00 | 76 | 1015.1 |
| 20260507033726 | 53 | 120 | 0.0 | 1.0 | 0.00 | 0.00 | 0.00 | 76 | 1014.9 |
| 20260507032209 | 53 | 120 | 0.0 | 1.0 | 0.00 | 0.00 | 0.00 | 74 | 1014.8 |
| 20260507031703 | 54 | 117 | 0.0 | 1.0 | 0.00 | 0.00 | 0.00 | 73 | 1014.8 |
| 20260507031157 | 54 | 117 | 0.0 | 1.0 | 0.00 | 0.00 | 0.00 | 73 | 1014.8 |
| 20260507030145 | 54 | 117 | 0.0 | 0.0 | 0.00 | 0.00 | 0.00 | 73 | 1014.7 |
| 20260507025639 | 54 | 117 | 0.0 | 0.0 | 0.00 | 0.00 | 0.00 | 73 | 1014.7 |
| 20260507024628 | 54 | 117 | 0.0 | 1.0 | 0.00 | 0.00 | 0.00 | 73 | 1014.7 |
| 20260507023110 | 54 | 117 | 0.0 | 0.0 | 0.00 | 0.00 | 0.00 | 72 | 1014.6 |
| 20260507022602 | 55 | 117 | 0.0 | 0.0 | 0.00 | 0.00 | 0.00 | 72 | 1014.5 |
| 20260507022058 | 55 | 117 | 0.0 | 0.0 | 0.00 | 0.00 | 0.00 | 72 | 1014.6 |
| 20260507021551 | 55 | 117 | 0.0 | 1.0 | 0.00 | 0.00 | 0.00 | 71 | 1014.5 |
| 20260507021046 | 55 | 117 | 0.0 | 1.0 | 0.00 | 0.00 | 0.00 | 71 | 1014.5 |
| 20260507020033 | 54 | 117 | 0.0 | 1.0 | 0.00 | 0.00 | 0.00 | 71 | 1014.5 |
| 20260507015526 | 54 | 117 | 0.0 | 1.0 | 0.00 | 0.00 | 0.00 | 71 | 1014.5 |
| 20260507015021 | 54 | 117 | 0.0 | 1.0 | 0.00 | 0.00 | 0.00 | 71 | 1014.5 |
| 20260507014528 | 54 | 117 | 0.0 | 0.0 | 0.00 | 0.00 | 0.00 | 71 | 1014.5 |
| 20260507014010 | 54 | 117 | 0.0 | 1.0 | 0.00 | 0.00 | 0.00 | 71 | 1014.4 |
| 20260507013504 | 54 | 117 | 0.0 | 1.0 | 0.00 | 0.00 | 0.00 | 71 | 1014.4 |
| 20260507012956 | 54 | 116 | 0.0 | 1.0 | 0.00 | 0.00 | 0.00 | 71 | 1014.2 |
| 20260507012452 | 54 | 117 | 0.0 | 2.0 | 0.00 | 0.00 | 0.00 | 71 | 1014.1 |
| 20260507011946 | 55 | 117 | 0.0 | 2.0 | 0.00 | 0.00 | 0.00 | 71 | 1014.1 |
| 20260507010933 | 55 | 79 | 0.0 | 0.0 | 0.00 | 0.00 | 0.00 | 72 | 1014.2 |
| 20260507010427 | 54 | 79 | 0.0 | 0.0 | 0.00 | 0.00 | 0.00 | 72 | 1014.2 |
| 20260507005415 | 54 | 79 | 0.0 | 1.0 | 0.00 | 0.00 | 0.00 | 72 | 1014.0 |
| 20260507004910 | 54 | 79 | 0.0 | 1.0 | 0.00 | 0.00 | 0.00 | 72 | 1014.0 |
| 20260507004404 | 54 | 79 | 0.0 | 1.0 | 0.00 | 0.00 | 0.00 | 72 | 1014.0 |
| 20260507002845 | 53 | 79 | 0.0 | 1.0 | 0.00 | 0.00 | 0.00 | 73 | 1013.9 |
| 20260507002338 | 53 | 79 | 1.0 | 4.0 | 0.00 | 0.00 | 0.00 | 73 | 1013.8 |
| 20260507001833 | 53 | 79 | 2.0 | 6.0 | 0.00 | 0.00 | 0.00 | 73 | 1013.8 |
| 20260507001328 | 53 | 72 | 0.0 | 6.0 | 0.00 | 0.00 | 0.00 | 72 | 1013.8 |
| 20260507000828 | 53 | 272 | 0.0 | 1.0 | 0.00 | 0.00 | 0.00 | 73 | 1013.9 |
| 20260507000328 | 53 | 273 | 0.0 | 1.0 | 0.00 | 0.00 | 0.00 | 73 | 1014.0 |
| 20260506235830 | 53 | 272 | 0.0 | 1.0 | 0.00 | 0.00 | 0.00 | 72 | 1014.0 |
| 20260506235325 | 53 | 273 | 0.0 | 0.0 | 0.00 | 0.00 | 0.00 | 71 | 1014.0 |
| 20260506234838 | 54 | 272 | 0.0 | 0.0 | 0.00 | 0.00 | 0.00 | 71 | 1014.0 |
| 20260506234325 | 54 | 273 | 0.0 | 1.0 | 0.00 | 0.00 | 0.00 | 71 | 1014.0 |
| 20260506233826 | 54 | 273 | 0.0 | 1.0 | 0.00 | 0.00 | 0.00 | 71 | 1014.0 |
| 20260506233322 | 54 | 272 | 0.0 | 1.0 | 0.00 | 0.00 | 0.00 | 71 | 1014.0 |
| 20260506232819 | 54 | 273 | 0.0 | 1.0 | 0.00 | 0.00 | 0.00 | 70 | 1014.1 |
| 20260506232320 | 54 | 273 | 0.0 | 1.0 | 0.00 | 0.00 | 0.00 | 70 | 1014.1 |
| 20260506231820 | 55 | 273 | 0.0 | 1.0 | 0.00 | 0.00 | 0.00 | 70 | 1014.1 |
| 20260506231334 | 55 | 273 | 0.0 | 1.0 | 0.00 | 0.00 | 0.00 | 70 | 1014.0 |
| 20260506230819 | 55 | 273 | 0.0 | 1.0 | 0.00 | 0.00 | 0.00 | 69 | 1014.0 |
| 20260506230319 | 55 | 273 | 0.0 | 1.0 | 0.00 | 0.00 | 0.00 | 68 | 1014.0 |
| 20260506225321 | 56 | 273 | 0.0 | 1.0 | 0.00 | 0.00 | 0.00 | 68 | 1014.0 |
| 20260506224817 | 56 | 273 | 0.0 | 1.0 | 0.00 | 0.00 | 0.00 | 67 | 1014.0 |
| 20260506224318 | 56 | 273 | 0.0 | 0.0 | 0.00 | 0.00 | 0.00 | 67 | 1014.0 |
| 20260506223830 | 56 | 273 | 0.0 | 0.0 | 0.00 | 0.00 | 0.00 | 68 | 1013.9 |
| 20260506223319 | 56 | 273 | 0.0 | 1.0 | 0.00 | 0.00 | 0.00 | 67 | 1013.9 |
| 20260506222316 | 56 | 243 | 0.0 | 0.0 | 0.00 | 0.00 | 0.00 | 66 | 1013.9 |
| 20260506221820 | 56 | 244 | 0.0 | 0.0 | 0.00 | 0.00 | 0.00 | 65 | 1013.9 |
| 20260506215818 | 58 | 245 | 0.0 | 1.0 | 0.00 | 0.00 | 0.00 | 63 | 1013.8 |
| 20260506215317 | 58 | 244 | 0.0 | 1.0 | 0.00 | 0.00 | 0.00 | 63 | 1013.9 |
| 20260506214819 | 58 | 243 | 0.0 | 1.0 | 0.00 | 0.00 | 0.00 | 63 | 1013.8 |
| 20260506214314 | 58 | 243 | 0.0 | 1.0 | 0.00 | 0.00 | 0.00 | 63 | 1013.7 |
| 20260506213811 | 58 | 273 | 0.0 | 1.0 | 0.00 | 0.00 | 0.00 | 62 | 1013.7 |
| 20260506213311 | 58 | 273 | 0.0 | 1.0 | 0.00 | 0.00 | 0.00 | 62 | 1013.6 |
| 20260506212307 | 59 | 273 | 0.0 | 2.0 | 0.00 | 0.00 | 0.00 | 61 | 1013.6 |
| 20260506211809 | 59 | 273 | 0.0 | 2.0 | 0.00 | 0.00 | 0.00 | 60 | 1013.6 |
| 20260506211310 | 60 | 273 | 0.0 | 1.0 | 0.00 | 0.00 | 0.00 | 59 | 1013.6 |
| 20260506210805 | 60 | 273 | 0.0 | 2.0 | 0.00 | 0.00 | 0.00 | 58 | 1013.6 |
| 20260506210303 | 60 | 271 | 0.0 | 3.0 | 0.00 | 0.00 | 0.00 | 58 | 1013.6 |
| 20260506205804 | 60 | 247 | 0.0 | 3.0 | 0.00 | 0.00 | 0.00 | 57 | 1013.6 |
| 20260506204801 | 61 | 273 | 0.0 | 1.0 | 0.00 | 0.00 | 0.00 | 57 | 1013.6 |
| 20260506203758 | 61 | 272 | 0.0 | 1.0 | 0.00 | 0.00 | 0.00 | 56 | 1013.6 |
| 20260506203300 | 61 | 273 | 0.0 | 1.0 | 0.00 | 0.00 | 0.00 | 56 | 1013.6 |
| 20260506202758 | 62 | 273 | 0.0 | 1.0 | 0.00 | 0.00 | 0.00 | 55 | 1013.6 |
| 20260506202258 | 62 | 273 | 0.0 | 4.0 | 0.00 | 0.00 | 0.00 | 54 | 1013.6 |
| 20260506201755 | 62 | 273 | 1.0 | 4.0 | 0.00 | 0.00 | 0.00 | 53 | 1013.5 |
| 20260506201254 | 62 | 273 | 1.0 | 6.0 | 0.00 | 0.00 | 0.00 | 53 | 1013.5 |
| 20260506200756 | 63 | 273 | 0.0 | 6.0 | 0.00 | 0.00 | 0.00 | 53 | 1013.5 |
| 20260506200256 | 63 | 273 | 0.0 | 4.0 | 0.00 | 0.00 | 0.00 | 53 | 1013.6 |
| 20260506195752 | 63 | 273 | 0.0 | 3.0 | 0.00 | 0.00 | 0.00 | 53 | 1013.5 |